COSMOS 2251 DEB, 37546

Orbit data source: Space-Track

COSMOS 2251 DEB, 37546 is space debris in LEO originally from a launch on Wed, 16 Jun 1993 UTC launched from the Plesetsk Missile And Space Complex (PKMTR). The debris from Iridium 33, an American commercial communications satellite, has been tracked extensively since its accidental collision with the defunct Russian satellite Cosmos 2251 in 2009. This event, occurring at high speed in low Earth orbit (LEO), generated thousands of pieces of space debris, significantly increasing the risk of further collisions. The Iridium 33 debris cloud has impacted space traffic management and orbital debris mitigation strategies, making it a subject of ongoing study in space situational awareness.

Loading next visibility...
Identifier
37546, 1993-036BPB
Orbit
LEO
Country
Flag of CISCIS
Related business
Manufacturer
Unknown
Mission
Spacecraft
Bus & Motor
Unknown
Mass
Unknown
Launch date (UTC)
1993-06-16 (33 years ago)
Launch vehicle
Unknown
Launch site
Plesetsk Missile And Space Complex (PKMTR)
Object type
Payload
Rocket body
Debris
Shape & HBR
Unknown shape, 0.1 m
Radar Cross Section
Small (<0.1 m²)

Expand to show TLE details & history
Last TLE update: 15 hours ago

TLE from 15 hours ago
0 COSMOS 2251 DEB
1 37546U 93036BPB 26149.92181817  .00026725  00000-0  29972-2 0  9998
2 37546  74.0180 124.4088 0003835 151.2365 208.9027 14.86701269683825
Epoch: 2026-05-29T22:07Z
TLE epoch observation values (Epoch: 2026-05-29T22:07:25.089Z)
Latitude
-0.00004°
Longitude
-94.891°
Altitude
613.268 km
Speed
7.551 km/s
True Right ascension
08h 17m 38s
True Declination
0° 00' 00"
Sunlit
Object was in daylight at epoch
Visualization orbit readout
Latitude
Unknown
Longitude
Unknown
Altitude
Unknown
Speed
Unknown
Apparent Right ascension
Unknown
Apparent Declination
Unknown
Sunlit
N/A
Visualization observer readout
Local Sidereal Time
22:55:44
Azimuth
Unknown
Elevation
Unknown
Doppler factor
Unknown
Orbital elements
Apogee altitude
608.499 km
Perigee altitude
603.142 km
Semi-major axis
6,983.958 km
Eccentricity
0.00038
Inclination
74.018°
RAAN
124.4088°
Arg. of periapsis
151.2365°
True anomaly
208.88147°
Mean anomaly
208.9027°
Eccentric anomaly
208.89208°
Mean motion
3.7187 °/min
Orbital period
96.81 mins
BSTAR
0.0029972
Loading maneuver chart data...
Computing Atmospheric mass density...
Loading historical data...
Loading historical data...
Loading historical data...
Loading historical data...
Loading historical data...
Loading historical data...
Loading historical data...

Documentation

Showing up to 5 results
|